{"data":{"norad_id":63171,"epoch":"2026-05-25T01:54:50.806080Z","epoch_age_seconds":64122,"freshness":"FRESH","line1":"1 63171U 25046N   26145.07975470  .00000059  00000+0  71981-4 0  9995","line2":"2 63171  88.9690 302.9880 0013654  24.1135 336.0653 13.51014790 69524","mean_motion":13.5101479,"eccentricity":0.0013654,"inclination_deg":88.969,"raan_deg":302.988,"arg_perigee_deg":24.1135,"mean_anomaly_deg":336.0653,"bstar":7.1981e-5,"rev_number":6952,"period_min":106.58654595484,"perigee_km":1058.3595620232,"apogee_km":1078.6949127226,"semimajor_km":7446.6642373729,"source":"CELESTRAK","updated_at":"2026-05-25T13:38:03.541345Z"}}